Zurück zum Katalog

STARLINK-33578

AktivKommunikationVLEO
NORAD 63368·PAYLOAD·🇺🇸 United States

Gestartet Mar 26, 2025 von Vandenberg Space Force Base

Loading…

Nächste Überflüge (nächste 24 Stunden)

TLE

AktuellSource: CelesTrak SupGP

Epoche: Sep 14, 2026, 22:58 UTC

1 63368C 25063F   26257.95743056  .00031858  00000+0  94109-3 0  2570
2 63368  53.1574 247.7585 0001427  98.2780 339.4204 15.34379514    17

Verfolge STARLINK-33578 in Echtzeit mit AllMySat

Download on the App Store